This is the latest recevied weather packets stored in our database for station/object KO5MO-11. If no packets are shown the sender has not sent any weather packets the latest 10 day(s).
| Time | Temp. | Humidity | Pressure | Rain* | Wind** | Luminosity | Snow |
|---|---|---|---|---|---|---|---|
| 1777464526 | 26.11° C | 33% | 1012.4 hPa | - | - | - | - |
| 1777463926 | 25.56° C | 33% | 1012.7 hPa | - | - | - | - |
| 1777463326 | 26.11° C | 32% | 1012.7 hPa | - | - | - | - |
| 1777462726 | 26.11° C | 32% | 1012.4 hPa | - | - | - | - |
| 1777462126 | 26.67° C | 32% | 1012.7 hPa | - | - | - | - |
| 1777461526 | 25.56° C | 33% | 1012.6 hPa | - | - | - | - |
| 1777460926 | 25.56° C | 32% | 1012.5 hPa | - | - | - | - |
| 1777460326 | 25.56° C | 33% | 1012.5 hPa | - | - | - | - |
| 1777459726 | 26.11° C | 32% | 1012.5 hPa | - | - | - | - |
| 1777459126 | 26.67° C | 32% | 1012.4 hPa | - | - | - | - |
| 1777458526 | 26.11° C | 33% | 1012.4 hPa | - | - | - | - |
| 1777457926 | 26.11° C | 32% | 1012.5 hPa | - | - | - | - |
| 1777457326 | 26.11° C | 32% | 1012.3 hPa | - | - | - | - |
| 1777456726 | 26.11° C | 32% | 1012.4 hPa | - | - | - | - |
| 1777456126 | 26.67° C | 32% | 1012.5 hPa | - | - | - | - |
| 1777455526 | 25.56° C | 33% | 1012.5 hPa | - | - | - | - |
| 1777454926 | 26.11° C | 33% | 1012.5 hPa | - | - | - | - |
| 1777454326 | 26.11° C | 32% | 1012.4 hPa | - | - | - | - |
| 1777453726 | 26.11° C | 31% | 1012.5 hPa | - | - | - | - |
| 1777453126 | 26.11° C | 33% | 1012.5 hPa | - | - | - | - |
| 1777452526 | 25.56° C | 33% | 1012.5 hPa | - | - | - | - |
| 1777451926 | 26.11° C | 32% | 1012.5 hPa | - | - | - | - |
| 1777451326 | 26.11° C | 33% | 1012.4 hPa | - | - | - | - |
| 1777450726 | 26.11° C | 33% | 1012.4 hPa | - | - | - | - |
| 1777450126 | 26.11° C | 33% | 1012.4 hPa | - | - | - | - |
* Rain since midnight (hover to see other rain measurements)
** Current wind speed in m/s (hover to see current wind gust speed)